Regional Weather Roundup
Issued by NWS Little Rock, AR

Home | Current Version | Previous Version | Graphics & Text | Print | Product List | Glossary On
Versions: 1 2 3 4 5 6 7 8 9 10 11 12 13 14 15 16 17 18 19 20 21 22 23 24 25 26 27 28 29 30 31 32 33 34 35 36 37 38 39 40 41 42 43 44 45 46 47 48 49
000
ASUS44 KLZK 301305
RWRLZK

WEATHER ROUNDUP FOR ARKANSAS
NATIONAL WEATHER SERVICE LITTLE ROCK AR
800 AM CDT THU JUL 30 2015

NOTE: "FAIR" INDICATES FEW OR NO CLOUDS BELOW 12,000 FEET WITH NO
SIGNIFICANT WEATHER AND/OR OBSTRUCTIONS TO VISIBILITY.

ARZ001-003-010-029-301400-
NORTHWEST ARKANSAS

CITY           SKY/WX    TMP DP  RH WIND       PRES   REMARKS
FAYETTEVILLE   SUNNY     76  72  87 NE5       30.17R
FORT SMITH     PTSUNNY   82  73  74 E8        30.10R HX  87
HARRISON       MOSUNNY   75  66  73 E6        30.20R
BENTONVILLE    SUNNY     79  66  65 E9        30.18R
ROGERS         SUNNY     76  68  76 E10       30.18R
SILOAM SPGS    SUNNY     75  66  73 E6        30.15R
HIGHFILL       SUNNY     77  71  82 E6        30.17R
SPRINGDALE     SUNNY     75  70  83 E9        30.19R
$$

ARZ004-005-016-301400-
NORTH CENTRAL ARKANSAS

CITY           SKY/WX    TMP DP  RH WIND       PRES   REMARKS
BATESVILLE     PTSUNNY   75  64  69 CALM      30.14R
FLIPPIN        MOSUNNY   75  64  69 N5        30.16R
MTN HOME       SUNNY     74  66  76 E3        30.18R
$$

ARZ040-041-301400-
WEST CENTRAL ARKANSAS

CITY           SKY/WX    TMP DP  RH WIND       PRES   REMARKS
MENA           SUNNY     79  72  78 CALM      30.14R
MOUNT IDA      SUNNY     78  74  87 CALM      30.10R
$$

ARZ009-017-025-026-028-301400-
NORTHEAST ARKANSAS

CITY           SKY/WX    TMP DP  RH WIND       PRES   REMARKS
JONESBORO      SUNNY     76  63  64 NE16      30.11R
NEWPORT        MOSUNNY   77  68  73 NE10      30.13R
WALNUT RIDGE   SUNNY     75  64  69 N9        30.14R
BLYTHEVILLE    SUNNY     77  68  73 NE10      30.11R
$$

ARZ022-023-033-042-044-301400-
CENTRAL ARKANSAS

CITY           SKY/WX    TMP DP  RH WIND       PRES   REMARKS
LITTLE ROCK    MOSUNNY   82  70  66 NE13      30.10R HX  86
N LITTLE ROCK    N/A     81  71  71 NE14      30.10R HX  85
JACKSONVILLE   SUNNY     80  69  67 NE9       30.10R
SEARCY         MOSUNNY   80  68  66 NE14      30.13R
HOT SPRINGS    SUNNY     83  73  72 E14       30.10R HX  89
RUSSELLVILLE   SUNNY     81  69  67 CALM      30.12R
CLINTON        LGT RAIN  77  70  78 CALM      30.16R
$$

ARZ036-301400-
EAST ARKANSAS

CITY           SKY/WX    TMP DP  RH WIND       PRES   REMARKS
WEST MEMPHIS   MOSUNNY   80  74  81 NE7       30.07S HX  85
$$

ARZ050-053-066-070-073-301400-
SOUTHWEST ARKANSAS

CITY           SKY/WX    TMP DP  RH WIND       PRES   REMARKS
ARKADELPHIA    FAIR      83  78  84 NE8       30.08R HX  93
CAMDEN         SUNNY     81  75  83 NE5       30.05R HX  86
TEXARKANA      MOSUNNY   83  76  79 CALM      30.06R HX  91
EL DORADO      MOSUNNY   82  74  76 CALM      30.05S HX  88
DE QUEEN       SUNNY     81  75  82 CALM      30.06R HX  87
$$

ARZ056-057-069-301400-
SOUTHEAST ARKANSAS

CITY           SKY/WX    TMP DP  RH WIND       PRES   REMARKS
PINE BLUFF     MOSUNNY   82  76  81 N10       30.08R HX  89
STUTTGART      SUNNY     81  72  74 NE16      30.08R
MONTICELLO     SUNNY     83  77  82 NE7       30.05R HX  92

$$





USA.gov is the U.S. government's official web portal to all federal, state and local government web resources and services.